Chatham, MA

1:48 AM EDT on July 28, 2017 (GMT -0400)
Chatham Municipal

Weather History for KCQX - January, 2014

Change the Weather History Date:

Thursday, January 23, 2014

  Actual Average Record
Temperature  
Mean Temperature 16 °F -  
Max Temperature 21 °F 33 °F 51 °F (1974)
Min Temperature 10 °F 21 °F -3 °F (1976)
Degree Days  
Heating Degree Days 48    
Moisture  
Dew Point 4 °F    
Average Humidity 63    
Maximum Humidity 84    
Minimum Humidity 38    
Precipitation  
Precipitation 0.00 in - - ()
Sea Level Pressure  
Sea Level Pressure 30.01 in    
Wind  
Wind Speed 5 mph (WNW)    
Max Wind Speed 10 mph    
Max Gust Speed 22 mph    
Visibility 9 miles    
Events Snow    
Averages and records for this station are not official NWS values.
T = Trace of Precipitation, MM = Missing Value Source: NWS Daily Summary

Daily Weather History Graph

Daily Weather History Graph

Search for Another Location

Airport or City:

Trip Planner

Search our weather history database for the weather conditions in past years. The results will help you decide how hot, cold, wet, or windy it might be!

Date:

Astronomy

Jan. 23, 2014 Rise Set
Actual Time 6:59 AM EST 4:44 PM EST
Civil Twilight 6:29 AM EST 5:14 PM EST
Nautical Twilight 5:56 AM EST 5:48 PM EST
Astronomical Twilight 5:23 AM EST 6:21 PM EST
Moon No Moon Rise 10:26 AM EST (1/23)
Length of Visible Light 10h 44m
Length of Day
9h 44m
Waning Gibbous, 55% of the Moon is Illuminated
Jan 23
Waning Gibbous
Jan 24
Last Quarter
Jan 30
New
Feb 6
First Quarter
Feb 14
Full

Hourly Weather History & Observations

Time (EST) Temp. Windchill Dew Point Humidity Pressure Visibility Wind Dir Wind Speed Gust Speed Precip Events Conditions
12:52 AM 17.1 °F 8.7 °F 8.1 °F 68% 29.87 in 10.0 mi NNW 5.8 mph - N/A   Overcast
1:52 AM 17.1 °F 11.7 °F 8.1 °F 68% 29.88 in 10.0 mi NNW 3.5 mph - N/A   Overcast
2:52 AM 15.1 °F - 8.1 °F 74% 29.92 in 10.0 mi Calm Calm - N/A   Overcast
3:52 AM 15.1 °F 9.4 °F 9.0 °F 77% 29.93 in 8.0 mi Variable 3.5 mph - N/A   Overcast
4:14 AM 15.1 °F 9.4 °F 8.1 °F 74% 29.93 in 9.0 mi NW 3.5 mph - 0.00 in   Mostly Cloudy
4:39 AM 15.1 °F 9.4 °F 8.1 °F 74% 29.93 in 10.0 mi Variable 3.5 mph - 0.00 in   Scattered Clouds
4:52 AM 15.1 °F 9.4 °F 8.1 °F 74% 29.93 in 10.0 mi NW 3.5 mph - 0.00 in   Partly Cloudy
5:14 AM 14.0 °F - 8.1 °F 77% 29.93 in 9.0 mi Calm Calm - N/A   Mostly Cloudy
5:39 AM 14.0 °F 5.1 °F 9.0 °F 80% 29.95 in 10.0 mi NW 5.8 mph - N/A   Scattered Clouds
5:49 AM 14.0 °F 6.5 °F 8.6 °F 79% 29.94 in 10.0 mi NW 4.6 mph - N/A   Mostly Cloudy
5:52 AM 14.0 °F 5.1 °F 8.1 °F 77% 29.95 in 9.0 mi Variable 5.8 mph - N/A   Mostly Cloudy
6:40 AM 12.0 °F 2.7 °F 8.1 °F 84% 29.98 in 5.0 mi Variable 5.8 mph - 0.00 in Snow Light Snow
6:52 AM 12.0 °F 2.7 °F 7.0 °F 80% 29.99 in 5.0 mi WNW 5.8 mph - 0.00 in Snow Light Snow
7:11 AM 12.0 °F 2.7 °F 8.1 °F 84% 29.99 in 6.0 mi WNW 5.8 mph - 0.00 in   Partly Cloudy
7:52 AM 12.9 °F 2.6 °F 7.0 °F 77% 30.00 in 10.0 mi Variable 6.9 mph - 0.00 in   Clear
8:52 AM 12.9 °F 1.6 °F 5.0 °F 71% 30.02 in 10.0 mi WNW 8.1 mph - N/A   Partly Cloudy
9:52 AM 14.0 °F 5.1 °F 3.9 °F 64% 30.04 in 10.0 mi West 5.8 mph - N/A   Scattered Clouds
10:52 AM 16.0 °F 5.3 °F 1.9 °F 54% 30.03 in 10.0 mi West 8.1 mph - N/A   Partly Cloudy
11:52 AM 19.0 °F 10.0 °F 3.0 °F 50% 30.02 in 10.0 mi Variable 6.9 mph - N/A   Overcast
12:52 PM 19.9 °F 10.1 °F 3.0 °F 48% 30.00 in 10.0 mi SW 8.1 mph - N/A   Mostly Cloudy
1:52 PM 21.9 °F 12.5 °F -0.0 °F 38% 30.01 in 10.0 mi WSW 8.1 mph 16.1 mph N/A   Clear
2:52 PM 21.9 °F 14.5 °F 3.0 °F 44% 30.01 in 10.0 mi Variable 5.8 mph 20.7 mph N/A   Clear
3:52 PM 21.9 °F 11.7 °F 3.9 °F 46% 30.02 in 10.0 mi West 9.2 mph - N/A   Clear
4:52 PM 19.0 °F 11.1 °F 1.0 °F 46% 30.04 in 10.0 mi WSW 5.8 mph - N/A   Clear
5:52 PM 17.1 °F 8.7 °F -0.0 °F 47% 30.07 in 10.0 mi Variable 5.8 mph - N/A   Clear
6:52 PM 17.1 °F 6.6 °F -2.0 °F 43% 30.09 in 10.0 mi West 8.1 mph - N/A   Clear
7:52 PM 16.0 °F 6.3 °F -2.9 °F 43% 30.11 in 10.0 mi West 6.9 mph - N/A   Clear
8:52 PM 16.0 °F 3.6 °F -2.0 °F 45% 30.14 in 10.0 mi WNW 10.4 mph 21.9 mph N/A   Clear
9:52 PM 15.1 °F 2.5 °F -2.0 °F 47% 30.16 in 10.0 mi West 10.4 mph 17.3 mph N/A   Clear
10:52 PM 12.9 °F 2.6 °F -2.0 °F 51% 30.17 in 10.0 mi West 6.9 mph - N/A   Clear
11:52 PM 10.9 °F 0.2 °F -2.9 °F 54% 30.18 in 10.0 mi Variable 6.9 mph - N/A   Clear